Weather History for Culpeper, VA

Change the Weather History Date:

Saturday, December 15, 2012

  Actual Average (KOMH) Record (KOMH)
Temperature  
Mean Temperature 42 °F -  
Max Temperature 57 °F 46 °F 68 °F (1967)
Min Temperature 28 °F 27 °F 9 °F (2010)
Degree Days  
Heating Degree Days 22    
Moisture  
Dew Point 31 °F    
Average Humidity 73    
Maximum Humidity 100    
Minimum Humidity 26    
Precipitation  
Precipitation 0.04 in - - ()
Sea Level Pressure  
Sea Level Pressure 30.22 in    
Wind  
Wind Speed 1 mph (SSE)    
Max Wind Speed 7 mph    
Max Gust Speed -    
Visibility 10 miles    
Events Rain    
Averages and records for this station are not official NWS values.
T = Trace of Precipitation, MM = Missing Value Source: NWS Daily Summary

Daily Weather History Graph

Daily Weather History Graph

Search for Another Location

Airport:

Trip Planner

Search our weather history database for the weather conditions in past years. The results will help you decide how hot, cold, wet, or windy it might be!

Date:

Astronomy

Dec. 15, 2012 Rise Set
Actual Time 7:22 AM EST 4:51 PM EST
Civil Twilight 6:52 AM EST 5:21 PM EST
Nautical Twilight 6:19 AM EST 5:54 PM EST
Astronomical Twilight 5:46 AM EST 6:26 PM EST
Moon 9:14 AM EST (12/15) 7:51 PM EST (12/15)
Length of Visible Light 10h 29m
Length of Day
9h 29m
Waxing Crescent, 8% of the Moon is Illuminated
Dec 15
Waxing Crescent
Dec 20
First Quarter
Dec 28
Full
Jan 4
Last Quarter
Jan 11
New

Hourly Weather History & Observations

Time (EST) Temp. Windchill Dew Point Humidity Pressure Visibility Wind Dir Wind Speed Gust Speed Precip Events Conditions
12:15 AM 28.4 °F - 28.4 °F 100% 30.26 in 10.0 mi Calm Calm - N/A   Clear
12:35 AM 28.4 °F - 28.4 °F 100% 30.26 in 10.0 mi Calm Calm - N/A   Clear
12:55 AM 28.4 °F - 28.4 °F 100% 30.25 in 10.0 mi Calm Calm - N/A   Clear
1:15 AM 28.4 °F - 28.4 °F 100% 30.25 in 10.0 mi Calm Calm - N/A   Clear
1:35 AM 28.4 °F - 28.4 °F 100% 30.25 in 10.0 mi Calm Calm - N/A   Clear
1:55 AM 28.4 °F - 26.6 °F 93% 30.25 in 10.0 mi Calm Calm - N/A   Clear
2:15 AM 28.4 °F - 26.6 °F 93% 30.26 in 10.0 mi Calm Calm - N/A   Clear
2:35 AM 28.4 °F - 28.4 °F 100% 30.27 in 10.0 mi Calm Calm - N/A   Clear
2:55 AM 28.4 °F - 26.6 °F 93% 30.27 in 10.0 mi Calm Calm - N/A   Clear
3:15 AM 28.4 °F - 28.4 °F 100% 30.26 in 10.0 mi Calm Calm - N/A   Clear
3:35 AM 28.4 °F 24.6 °F 28.4 °F 100% 30.25 in 10.0 mi North 3.5 mph - N/A   Clear
3:55 AM 28.4 °F - 28.4 °F 100% 30.25 in 10.0 mi Calm Calm - N/A   Clear
4:15 AM 30.2 °F - 28.4 °F 93% 30.26 in 10.0 mi Calm Calm - N/A   Clear
4:35 AM 28.4 °F - 28.4 °F 100% 30.25 in 10.0 mi Calm Calm - N/A   Clear
4:55 AM 28.4 °F - 28.4 °F 100% 30.25 in 10.0 mi Calm Calm - N/A   Clear
5:15 AM 30.2 °F - 28.4 °F 93% 30.25 in 10.0 mi Calm Calm - N/A   Clear
5:35 AM 28.4 °F - 28.4 °F 100% 30.25 in 10.0 mi Calm Calm - N/A   Clear
5:55 AM 30.2 °F 26.7 °F 28.4 °F 93% 30.25 in 10.0 mi North 3.5 mph - N/A   Clear
6:15 AM 28.4 °F - 28.4 °F 100% 30.26 in 10.0 mi Calm Calm - N/A   Clear
6:35 AM 28.4 °F - 28.4 °F 100% 30.26 in 10.0 mi Calm Calm - N/A   Clear
6:55 AM 28.4 °F - 28.4 °F 100% 30.27 in 10.0 mi Calm Calm - N/A   Clear
7:15 AM 28.4 °F - 28.4 °F 100% 30.28 in 10.0 mi Calm Calm - N/A   Clear
7:35 AM 28.4 °F - 28.4 °F 100% 30.27 in 10.0 mi Calm Calm - N/A   Clear
7:55 AM 30.2 °F - 30.2 °F 100% 30.28 in 10.0 mi Calm Calm - N/A   Clear
8:15 AM 30.2 °F - 30.2 °F 100% 30.29 in 10.0 mi Calm Calm - N/A   Clear
8:35 AM 32.0 °F - 30.2 °F 93% 30.29 in 10.0 mi Calm Calm - N/A   Clear
9:15 AM 33.8 °F - 32.0 °F 93% 30.31 in 10.0 mi Calm Calm - N/A   Clear
9:35 AM 37.4 °F - 32.0 °F 81% 30.31 in 10.0 mi Calm Calm - N/A   Clear
9:55 AM 41.0 °F - 33.8 °F 76% 30.30 in 10.0 mi Calm Calm - N/A   Clear
10:15 AM 42.8 °F - 32.0 °F 66% 30.29 in 10.0 mi Calm Calm - N/A   Clear
10:35 AM 42.8 °F - 30.2 °F 61% 30.29 in 10.0 mi Calm Calm - N/A   Clear
10:55 AM 44.6 °F - 30.2 °F 57% 30.28 in 10.0 mi Calm Calm - N/A   Clear
11:15 AM 46.4 °F - 30.2 °F 53% 30.27 in 10.0 mi Calm Calm - N/A   Clear
11:35 AM 46.4 °F - 32.0 °F 57% 30.26 in 10.0 mi Calm Calm - N/A   Clear
11:55 AM 48.2 °F - 30.2 °F 50% 30.25 in 10.0 mi SSE 3.5 mph - N/A   Clear
12:15 PM 50.0 °F - 30.2 °F 47% 30.25 in 10.0 mi Calm Calm - N/A   Clear
12:35 PM 51.8 °F - 30.2 °F 44% 30.24 in 10.0 mi Calm Calm - N/A   Clear
12:55 PM 51.8 °F - 30.2 °F 44% 30.23 in 10.0 mi Calm Calm - N/A   Clear
1:15 PM 55.4 °F - 30.2 °F 38% 30.21 in 10.0 mi SSE 3.5 mph - N/A   Clear
1:35 PM 55.4 °F - 30.2 °F 38% 30.21 in 10.0 mi SSE 3.5 mph - N/A   Clear
1:55 PM 55.4 °F - 30.2 °F 38% 30.19 in 10.0 mi ESE 3.5 mph - N/A   Clear
2:15 PM 55.4 °F - 28.4 °F 36% 30.18 in 10.0 mi South 3.5 mph - N/A   Clear
2:35 PM 57.2 °F - 26.6 °F 31% 30.17 in 10.0 mi South 5.8 mph - N/A   Clear
2:55 PM 55.4 °F - 23.0 °F 29% 30.17 in 10.0 mi SSE 6.9 mph - N/A   Clear
3:15 PM 55.4 °F - 24.8 °F 31% 30.17 in 10.0 mi South 6.9 mph - N/A   Clear
3:35 PM 55.4 °F - 21.2 °F 26% 30.17 in 10.0 mi South 5.8 mph - N/A   Clear
3:55 PM 53.6 °F - 23.0 °F 30% 30.17 in 10.0 mi South 5.8 mph - N/A   Clear
4:15 PM 53.6 °F - 24.8 °F 33% 30.17 in 10.0 mi South 5.8 mph - N/A   Clear
4:35 PM 51.8 °F - 26.6 °F 38% 30.17 in 10.0 mi South 4.6 mph - N/A   Clear
4:55 PM 51.8 °F - 26.6 °F 38% 30.16 in 10.0 mi SSE 4.6 mph - N/A   Clear
5:15 PM 50.0 °F - 26.6 °F 40% 30.16 in 10.0 mi SSE 3.5 mph - N/A   Clear
5:35 PM 50.0 °F - 26.6 °F 40% 30.17 in 10.0 mi Calm Calm - N/A   Clear
5:55 PM 46.4 °F - 28.4 °F 50% 30.17 in 10.0 mi Calm Calm - N/A   Clear
6:15 PM 46.4 °F - 30.2 °F 53% 30.17 in 10.0 mi Calm Calm - N/A   Clear
6:35 PM 46.4 °F - 30.2 °F 53% 30.17 in 10.0 mi Calm Calm - N/A   Clear
6:55 PM 46.4 °F - 30.2 °F 53% 30.16 in 10.0 mi Calm Calm - N/A   Clear
7:15 PM 46.4 °F - 30.2 °F 53% 30.15 in 10.0 mi Calm Calm - N/A   Scattered Clouds
7:35 PM 46.4 °F - 30.2 °F 53% 30.15 in 10.0 mi Calm Calm - N/A   Mostly Cloudy
7:55 PM 46.4 °F - 30.2 °F 53% 30.15 in 10.0 mi Calm Calm - N/A   Overcast
8:15 PM 44.6 °F - 33.8 °F 66% 30.16 in 10.0 mi Calm Calm - N/A   Mostly Cloudy
8:35 PM 46.4 °F - 32.0 °F 57% 30.14 in 10.0 mi Calm Calm - N/A   Scattered Clouds
8:55 PM 46.4 °F 45.2 °F 33.8 °F 62% 30.14 in 10.0 mi SSE 3.5 mph - N/A Rain Light Rain
9:15 PM 44.6 °F - 37.4 °F 76% 30.14 in 10.0 mi Calm Calm - 0.01 in Rain Rain
9:35 PM 42.8 °F - 42.8 °F 100% 30.14 in 10.0 mi Calm Calm - 0.01 in   Overcast
9:55 PM 42.8 °F - 42.8 °F 100% 30.13 in 7.0 mi Calm Calm - 0.01 in Rain Light Rain
10:15 PM 42.8 °F - 42.8 °F 100% 30.13 in 10.0 mi Calm Calm - N/A Rain Light Rain
10:35 PM 42.8 °F - 42.8 °F 100% 30.13 in 10.0 mi Calm Calm - N/A Rain Light Rain
10:55 PM 42.8 °F - 42.8 °F 100% 30.13 in 10.0 mi Calm Calm - N/A Rain Light Rain
11:15 PM 42.8 °F - 42.8 °F 100% 30.14 in 10.0 mi Calm Calm - N/A Rain Rain
11:35 PM 42.8 °F - 42.8 °F 100% 30.15 in 5.0 mi Calm Calm - 0.01 in Rain Light Rain
11:55 PM 42.8 °F - 42.8 °F 100% 30.14 in 7.0 mi Calm Calm - 0.03 in Rain Rain